Location: Altavilla Irpina
(41.0000°N, 14.7833°E)
Time: 23:44:08
(UTC+00:00)

Cosmos 1726 Rocket - Pass Details

Date: 19 May 2025
Orbit: 554 x 664 km, 82.5° (Epoch: 15 June)

Event Time Altitude Azimuth Distance (km) Brightness Sun altitude
Rises 18:39:26 0° 166° (SSE) 2,970 6.6 -4.7°
Reaches altitude 10° 18:41:49 10° 158° (SSE) 2,053 5.8 -5.1°
Maximum altitude 18:46:00 37° 92° (E) 1,002 4.2 -5.7°
Drops below altitude 10° 18:50:07 10° 25° (NNE) 2,014 6.3 -6.4°
Sets 18:52:27 0° 17° (NNE) 2,907 7.2 -6.7°
